• Join FlightAware (Why Join?)
  • Login
  • US Flag 
09:11PM EDT


 

Airport Tracker/Info


-or-


 

Live Flight TrackerFlight Track Log ✈ SWA554 ✈ 09-Apr-2013 ✈ KLAS - KPHX

Flight Track Log - Related Links

Times and Time Zones

All times are in EDT time to prevent confusion due to time zone crossing. See the SWA554 flight status page for this flight to view local times or setup timezone preferences in your user account.

Time Position Orientation Groundspeed Altitude Reporting Facility
EDT Latitude Longitude Course Direction KTS MPH feet Rate Location/Type
09:21AM 36.0986 -115.1528 47° Northeast 140 161 3,400  Level Los Angeles Center
09:22AM 36.1306 -115.1103 47° Northeast 203 234 5,700 2,580 Climbing Los Angeles Center
09:22AM 36.1350 -115.0600 84° East 225 259 7,400 3,420 Climbing Los Angeles Center
09:23AM 36.1394 -115.0222 82° East 264 304 9,200 4,080 Climbing Los Angeles Center
09:23AM 36.1433 -114.9678 85° East 266 306 11,600 3,960 Climbing Los Angeles Center
09:24AM 36.1539 -114.8650 83° East 297 342 15,700 3,720 Climbing Los Angeles Center
09:25AM 36.1703 -114.7556 79° East 320 368 19,300 3,360 Climbing Los Angeles Center
09:26AM 36.1658 -114.6283 92° East 379 436 22,600 3,360 Climbing Los Angeles Center
09:27AM 36.1228 -114.5028 113° Southeast 394 453 26,100 3,120 Climbing Los Angeles Center
09:28AM 36.0844 -114.3831 112° Southeast 377 434 28,900 1,380 Climbing Los Angeles Center
09:30AM 36.0428 -114.2583 112° Southeast 388 447 29,000  Climbing Los Angeles Center
09:31AM 35.9681 -114.1289 125° Southeast 388 447 29,000  Level Los Angeles Center
09:32AM 35.8942 -114.0286 132° Southeast 393 452 29,000  Level Los Angeles Center
09:33AM 35.8194 -113.9300 133° Southeast 392 451 29,000  Level Los Angeles Center
09:34AM 35.7458 -113.8319 133° Southeast 391 450 29,000  Level Los Angeles Center
09:35AM 35.6781 -113.7425 133° Southeast 407 468 29,000  Level Los Angeles Center
09:36AM 35.5872 -113.6236 133° Southeast 396 456 29,000  Level Los Angeles Center
09:37AM 35.5139 -113.5264 133° Southeast 390 449 29,000  Level Los Angeles Center
09:38AM 35.4394 -113.4286 133° Southeast 394 453 29,000  Level Los Angeles Center
09:39AM 35.3642 -113.3311 133° Southeast 395 455 29,000  Level Los Angeles Center
09:40AM 35.2917 -113.2369 133° Southeast 393 452 29,000  Level Los Angeles Center
09:41AM 35.2172 -113.1375 132° Southeast 395 455 29,000  Level Los Angeles Center
09:42AM 35.1433 -113.0414 133° Southeast 396 456 29,000  Level Los Angeles Center
09:43AM 35.0531 -112.9281 134° Southeast 396 456 29,000  Level Los Angeles Center
09:44AM 34.9772 -112.8311 134° Southeast 397 457 29,000  Level Albuquerque Center
09:45AM 34.9019 -112.7342 133° Southeast 396 456 29,000 -540 Level Albuquerque Center
09:46AM 34.8272 -112.6383 134° Southeast 393 452 27,900 -1,020 Descending Albuquerque Center
09:47AM 34.7514 -112.5425 134° Southeast 394 453 27,000 -960 Descending Albuquerque Center
09:48AM 34.6733 -112.4483 135° Southeast 396 456 26,000 -1,620 Descending Albuquerque Center
09:49AM 34.5867 -112.3658 142° Southeast 396 456 23,700 -2,460 Descending Albuquerque Center
09:50AM 34.4958 -112.2794 142° Southeast 397 457 21,000 -1,860 Descending Albuquerque Center
09:51AM 34.4031 -112.2183 151° Southeast 386 444 20,000 -540 Descending Albuquerque Center
09:52AM 34.2986 -112.1914 168° South 384 442 19,900 -1,320 Descending Albuquerque Center
09:53AM 34.1983 -112.1653 168° South 373 429 17,400 -2,040 Descending Albuquerque Center
09:54AM 34.0839 -112.1353 168° South 354 407 15,800 -1,620 Descending Albuquerque Center
09:55AM 33.9939 -112.1122 168° South 336 387 14,200 -1,620 Descending Albuquerque Center
09:56AM 33.9061 -112.0897 168° South 328 377 12,600 -1,380 Descending Albuquerque Center
09:57AM 33.8231 -112.0689 168° South 311 358 11,400 -1,140 Descending Albuquerque Center
09:58AM 33.7458 -112.0503 169° South 289 333 10,300 -720 Descending Albuquerque Center
09:59AM 33.6739 -112.0378 172° South 265 305 10,000 -240 Descending Albuquerque Center
10:00AM 33.6047 -112.0258 172° South 253 291 9,900 -720 Descending Albuquerque Center
10:01AM 33.5333 -111.9778 151° Southeast 268 308 8,600 -1,260 Descending Albuquerque Center
10:02AM 33.5278 -111.8944 95° East 261 300 7,400 -840 Descending Albuquerque Center
10:03AM 33.5267 -111.8136 91° East 246 283 6,900 -660 Descending Albuquerque Center
10:04AM 33.4794 -111.7922 159° South 197 227 6,100 -1,080 Descending Albuquerque Center
10:05AM 33.4464 -111.8239 219° Southwest 165 190 4,800 -1,500 Descending Albuquerque Center
10:06AM 33.4411 -111.8769 263° West 167 192 3,100 -1,320 Descending Albuquerque Center
10:07AM 33.4406 -111.9308 269° West 163 188 2,200 -840 Descending Albuquerque Center
10:08AM 33.4411 -111.9733 271° West 131 151 1,500 -720 Descending Albuquerque Center